MOLNIYA 1-49

Last updated on Nov. 15, 2019, 4:21 a.m. UTC

1 12156U 81009A   19317.22502593  .00001069  00000-0 -26274-2 0  9992
2 12156  62.5134 307.0076 7251882 249.9772  23.6533  2.05694128202007
UTC
Height (km)
Latitude
Longitude
Inclination
Orbital Period
UTC large
Height (km)
Speed (km/s)
/
Latitude / Longitude
Inclination (degrees)
Orbital Period (minutes)
Azimuth
Elevation
Range (km)
Doppler Factor
iOS Compass Heading
iOS Angle

Next 30 passes for location: Hong Kong

Rise time Rise Azimuth (degrees) Set time Set Azimuth (degrees) Duration Max altitude (degrees)

No matching passes for this satellites